Probability
0 0 0 0 0 0 0 0 0 0 0 0 0 0 0 0 0 0 0 0 0 0 0 0 0 0 0 0 0 0 0 0 0 0 0 0 0 0 0 0 0 0 0 0
0 0 0 0 0 0 0 0 0 0 0 0 0 0 0 0 0 0 0 0 0 0 0 0 0 0 0 0 0 0 0 0 0 0 0 0 0 0 0 0 0 0 0 0
0 0 0 0 0 0 0 0 0 0 0 0 0 0 0 0 0 0 0 0 0 0 0 0 0 0 0 0 0 0 0 0 0 0 0 0 0 0 0 0 0 0 0 0
0 0 0 0 0 0 0 0 0 0 0 0 0 0 0 0 0 0 0 0 0 0 0 0 0 0 0 0 0 0 0 0 0 0 0 0 0 0 0 0 0 0 0 0
0 0 0 0 0 0 0 0 0 0 0 0 0 0 0 0 0 0 0 0 0 0 0 0 0 0 0 0 0 0 0 0 0 0 0 0 0 0 0 0 0 0 0 0
0 0 0 0 0 0 0 0 0 0 0 0 0 0 0 0 0 0 0 0 0 0 0 0 0 0 0 0 0 0 0 0 0 0 0 0 0 0 0 0 0 0 0 0
0 0 0 0 0 0 0 0 0 0 0 0 0 0 0 0 0 0 0 1 1 1 0 0 0 0 0 0 0 0 0 0 0 0 0 0 0 0 0 0 0 0 0 0
0 0 0 0 0 0 0 0 0 0 0 0 0 0 0 0 0 0 0 1 2 2 1 0 0 0 0 0 0 0 0 0 0 0 0 0 0 0 0 0 0 0 0 0
0 0 0 0 0 0 0 0 0 0 0 0 0 0 0 0 0 0 1 3 5 3 1 1 0 0 0 0 0 0 0 0 0 0 0 0 0 0 0 0 0 0 0 0
0 0 0 0 0 0 0 0 0 0 0 0 0 0 0 0 0 1 3 7 9 8 5 4 3 1 0 0 0 0 0 0 0 0 0 0 0 0 0 0 0 0 0 0
0 0 0 0 0 0 0 0 0 0 0 0 0 0 0 0 0 2 5 9 13 13 10 8 6 4 1 0 0 0 0 0 0 0 0 0 0 0 0 0 0 0 0 0
0 0 0 0 0 0 0 0 0 0 0 0 0 0 0 0 0 1 4 8 10 11 9 7 7 5 3 1 0 0 0 0 0 0 0 0 0 0 0 0 0 0 0 0
0 0 0 0 0 0 0 0 0 0 0 0 0 0 0 0 0 0 1 3 4 5 4 5 5 5 5 4 1 0 0 0 0 0 0 0 0 0 0 0 0 0 0 0
0 0 0 0 0 0 0 0 0 0 0 0 0 0 0 0 0 0 0 0 1 2 2 2 3 4 6 6 3 1 0 0 0 0 0 0 0 0 0 0 0 0 0 0
0 0 0 0 0 0 0 0 0 0 0 0 0 0 0 0 0 0 0 0 0 1 1 0 1 2 4 5 4 1 0 0 0 0 0 0 0 0 0 0 0 0 0 0
0 0 0 0 0 0 0 0 0 0 0 0 0 0 0 0 0 0 0 0 0 0 0 0 0 1 2 3 2 1 0 0 0 0 0 0 0 0 0 0 0 0 0 0
0 0 0 0 0 0 0 0 0 0 0 0 0 0 0 0 0 0 0 0 0 0 0 0 0 0 1 1 1 0 0 0 0 0 0 0 0 0 0 0 0 0 0 0
0 0 0 0 0 0 0 0 0 0 0 0 0 0 0 0 0 0 0 0 0 0 0 0 0 0 0 0 0 0 0 0 0 0 0 0 0 0 0 0 0 0 0 0
0 0 0 0 0 0 0 0 0 0 0 0 0 0 0 0 0 0 0 0 0 0 0 0 0 0 0 0 0 0 0 0 0 0 0 0 0 0 0 0 0 0 0 0
0 0 0 0 0 0 0 0 0 0 0 0 0 0 0 0 0 0 0 0 0 0 0 0 0 0 0 0 0 0 0 0 0 0 0 0 0 0 0 0 0 0 0 0
0 0 0 0 0 0 0 0 0 0 0 0 0 0 0 0 0 0 0 0 0 0 0 0 0 0 0 0 0 0 0 0 0 0 0 0 0 0 0 0 0 0 0 0
0 0 0 0 0 0 0 0 0 0 0 0 0 0 0 0 0 0 0 0 0 0 0 0 0 0 0 0 0 0 0 0 0 0 0 0 0 0 0 0 0 0 0 0
0 0 0 0 0 0 0 0 0 0 0 0 0 0 0 0 0 0 0 0 0 0 0 0 0 0 0 0 0 0 0 0 0 0 0 0 0 0 0 0 0 0 0 0
0 0 0 0 0 0 0 0 0 0 0 0 0 0 0 0 0 0 0 0 0 0 0 0 0 0 0 0 0 0 0 0 0 0 0 0 0 0 0 0 0 0 0 0
0 0 0 0 0 0 0 0 0 0 0 0 0 0 0 0 0 0 0 0 0 0 0 0 0 0 0 0 0 0 0 0 0 0 0 0 0 0 0 0 0 0 0 0
0 0 0 0 0 0 0 0 0 0 0 0 0 0 0 0 0 0 0 0 0 0 0 0 0 0 0 0 0 0 0 0 0 0 0 0 0 0 0 0 0 0 0 0
0 0 0 0 0 0 0 0 0 0 0 0 0 0 0 0 0 0 0 0 0 0 0 0 0 0 0 0 0 0 0 0 0 0 0 0 0 0 0 0 0 0 0 0
Wind_Speed
16 16 16 17 18 17 17 18 21 22 22 20 18 16 14 11 9 9 8 8 7 6 6 5 5 5 4 3 2 1 0 2 3 3 4 5 6 7 6 6 6 6 6 6
16 16 16 18 19 20 19 19 20 21 21 17 14 12 11 10 10 9 9 8 7 6 6 6 6 5 4 3 2 1 1 2 3 4 5 5 6 6 6 6 6 6 6 6
14 13 13 13 11 11 12 12 15 17 16 15 15 13 11 10 9 9 9 8 7 7 6 6 5 4 4 4 3 2 2 4 4 5 6 6 6 6 7 7 6 6 6 6
10 9 10 5 6 9 12 14 14 15 15 16 15 12 10 10 9 9 9 8 7 7 6 6 5 5 5 5 4 4 3 4 5 6 7 7 7 7 7 6 6 6 6 7
7 10 11 9 7 9 11 14 14 13 13 14 11 9 11 9 8 9 8 7 6 7 6 6 6 5 6 5 5 4 4 4 6 6 7 8 8 8 7 7 7 6 7 7
8 10 9 7 9 7 10 13 7 12 14 16 13 12 9 5 4 7 8 7 7 7 7 6 6 6 7 6 6 5 4 4 6 6 7 8 8 8 7 7 7 7 7 7
11 12 8 8 11 11 11 12 19 21 20 19 17 15 14 11 7 7 8 8 9 9 8 7 7 7 8 7 6 5 4 5 6 6 7 8 8 7 8 8 8 7 8 7
7 8 4 14 15 14 17 21 22 22 21 20 19 19 18 15 12 10 10 10 11 10 9 8 8 9 9 8 6 5 5 6 7 7 7 8 8 8 8 9 9 8 8 8
7 8 13 16 17 18 19 21 21 21 21 21 21 20 19 17 14 12 12 11 11 12 11 10 10 10 10 8 7 7 7 7 7 8 7 8 9 9 9 8 8 8 8 8
9 8 15 17 19 20 21 22 22 21 21 20 20 19 19 17 14 12 12 12 12 13 12 12 12 12 10 8 8 8 8 8 8 8 8 8 7 8 8 8 8 7 7 7
9 11 14 15 20 22 22 22 22 21 20 19 19 18 17 15 14 11 10 11 12 13 14 13 13 12 11 10 9 10 9 9 9 9 8 8 7 4 5 5 3 4 6 7
6 10 11 12 16 20 20 20 21 21 20 19 18 18 17 14 13 11 10 10 12 14 15 14 14 13 13 11 11 11 9 9 8 8 8 8 8 7 8 6 7 6 6 2
7 12 10 13 15 17 17 19 18 18 18 18 17 16 16 15 13 12 10 10 12 14 15 15 15 14 14 13 13 12 11 10 8 8 9 8 9 9 9 6 4 3 2 3
10 11 13 16 18 19 19 20 19 18 16 15 15 15 15 14 14 13 11 10 11 12 14 15 15 15 15 15 14 14 12 11 9 8 9 9 9 9 10 11 10 9 7 6
12 12 14 17 18 19 19 19 20 19 18 17 15 14 15 15 15 13 12 11 11 12 13 15 16 16 16 16 16 15 13 10 10 10 10 9 10 10 10 11 11 11 11 11
16 17 17 19 20 21 21 21 20 20 19 18 17 16 15 15 15 13 12 11 11 12 12 13 15 15 16 17 16 14 12 12 11 10 10 10 10 11 10 11 11 11 11 12
17 19 21 22 23 23 22 21 21 21 21 20 19 18 17 15 14 13 12 11 12 12 11 12 13 13 16 17 17 13 13 13 13 11 11 11 11 11 11 11 11 11 11 11
19 20 21 23 23 23 24 23 21 22 21 21 21 19 18 16 15 13 12 12 12 12 11 10 11 12 15 17 15 13 12 12 14 14 12 12 12 11 12 12 12 12 10 11
21 22 23 23 23 23 23 22 22 22 21 21 21 20 19 18 15 13 11 11 11 11 9 9 9 11 14 16 15 11 12 13 14 14 13 12 12 12 12 12 12 12 12 11
23 23 24 24 24 23 22 22 22 22 21 21 22 21 20 19 17 14 12 10 8 7 9 9 9 10 12 14 15 13 14 14 14 14 14 13 14 14 13 13 13 13 12 12
24 24 24 23 23 23 22 22 21 22 22 22 22 22 21 20 18 14 12 10 9 7 8 10 9 9 10 10 14 13 14 14 14 14 14 14 14 14 14 14 13 13 12 12
23 23 24 23 23 23 21 20 21 22 22 22 22 21 20 20 18 15 14 10 9 7 6 7 8 8 6 9 11 14 14 14 14 13 13 13 13 14 14 14 13 13 13 12
21 22 23 23 23 23 23 21 21 20 21 21 20 20 19 18 14 13 12 9 8 7 7 8 9 8 6 8 10 13 14 15 14 14 13 13 13 13 13 15 13 13 13 12
21 22 22 22 22 22 22 22 21 18 19 20 19 19 18 15 13 12 11 9 10 10 9 8 9 9 9 9 10 12 13 14 14 14 13 13 13 13 13 13 13 13 13 14
21 21 21 21 20 17 19 20 20 19 18 15 17 18 15 12 12 12 11 11 9 9 10 10 12 12 11 11 12 12 12 13 14 14 14 13 13 13 13 13 13 12 12 12
20 18 17 18 16 15 15 15 14 14 14 14 13 13 13 11 12 11 10 12 14 11 10 9 10 11 12 12 13 13 13 13 13 13 14 13 14 13 12 13 16 12 11 10
19 17 15 15 15 14 15 15 16 16 14 14 14 13 13 12 11 11 12 11 10 10 10 10 10 10 11 11 12 13 12 12 12 13 12 12 11 11 11 13 12 10 10 10
Wind_Direction
280 286 287 283 281 276 262 261 272 283 289 296 303 303 300 294 284 274 274 274 271 265 262 262 266 274 283 290 296 309 45 93 90 99 99 95 94 92 92 96 100 105 110 113
284 282 282 281 277 273 270 268 269 275 281 291 299 299 291 280 271 269 272 272 267 259 257 257 259 265 275 272 271 256 204 152 131 122 119 115 112 109 107 105 105 110 112 115
284 293 293 276 275 279 278 272 275 280 292 304 302 298 291 285 276 270 273 272 265 259 253 250 251 256 263 265 250 236 204 172 156 150 139 136 134 132 128 125 123 123 123 116
282 291 265 292 331 299 292 288 287 286 288 293 295 297 288 276 273 272 270 268 260 253 247 241 237 234 245 252 246 236 206 180 169 170 156 149 148 145 142 138 135 131 127 118
277 284 284 293 307 313 303 295 297 302 306 306 312 296 271 251 244 256 264 261 253 244 240 231 233 230 236 242 238 230 212 183 173 170 160 156 154 150 146 140 137 137 132 126
272 286 288 323 9 350 300 285 341 341 326 318 309 287 302 336 237 238 240 239 232 227 225 219 222 224 233 240 234 228 210 188 174 174 168 159 153 152 147 145 145 141 131 128
275 277 276 354 1 324 296 325 338 323 315 309 302 294 301 301 270 241 231 222 217 218 216 216 214 216 229 239 236 227 207 187 180 176 168 156 150 150 152 151 145 137 132 125
277 275 292 10 343 329 318 317 313 309 305 302 299 294 289 283 271 249 233 221 212 210 212 209 207 212 226 233 232 221 209 196 182 174 170 155 154 156 157 152 151 149 148 143
301 300 335 338 327 325 323 316 312 307 303 300 297 295 290 283 273 254 237 224 211 207 208 203 202 211 225 224 219 216 209 199 183 174 171 162 164 163 164 169 173 167 168 163
294 305 331 332 339 339 332 324 317 312 305 299 297 295 293 288 280 263 241 222 210 208 207 203 201 207 217 217 209 212 208 195 183 177 173 170 175 177 179 179 182 177 177 168
294 332 338 343 345 340 336 334 331 327 320 314 307 301 298 294 287 272 248 226 212 208 208 205 199 203 207 207 203 210 206 196 189 185 177 171 179 169 191 167 164 187 179 171
335 343 324 331 339 340 339 340 339 337 335 335 332 324 317 308 302 291 267 237 219 213 211 206 199 199 200 199 200 206 203 197 193 186 177 179 170 158 58 67 79 53 32 34
340 323 320 325 327 331 332 334 335 336 335 334 335 335 332 326 320 312 291 260 236 222 214 207 200 198 195 193 198 204 206 197 197 192 180 187 183 178 166 136 98 105 98 60
341 331 322 326 325 326 326 327 327 326 328 329 329 330 332 330 328 323 310 289 265 245 227 212 204 199 194 191 195 201 205 194 199 198 192 190 189 189 183 175 174 174 175 172
330 322 312 312 313 315 317 318 319 319 320 322 324 327 329 328 326 326 320 308 284 258 239 221 210 202 193 190 192 198 201 197 197 199 196 196 193 195 192 186 182 176 169 167
313 311 310 311 312 313 313 314 313 311 312 313 314 317 319 319 317 319 323 319 295 267 249 232 219 207 194 191 190 195 200 197 192 199 198 197 196 197 194 189 189 183 181 177
306 310 313 313 312 311 311 310 308 306 306 305 306 306 307 307 308 310 314 317 305 284 264 245 231 214 199 193 192 195 194 185 188 203 203 199 198 199 196 194 194 192 192 182
300 302 304 306 306 306 305 304 303 303 302 301 299 296 295 296 297 300 303 310 308 296 277 257 238 219 206 198 197 199 194 187 189 204 203 200 200 201 200 199 200 201 198 177
312 309 307 305 304 302 301 302 302 302 301 301 298 295 292 288 286 287 292 296 298 295 288 281 261 232 213 203 196 202 199 195 189 197 201 195 200 204 203 203 205 205 207 199
315 314 313 311 308 306 304 302 301 300 301 301 299 295 292 288 283 280 278 275 274 280 293 290 268 241 222 205 198 203 203 200 195 194 198 197 200 206 207 207 209 210 212 213
320 318 316 313 310 308 305 304 302 300 300 299 296 293 292 290 284 278 272 271 267 268 281 283 264 242 223 203 196 208 205 202 200 198 198 200 201 204 208 210 211 213 215 216
319 317 315 313 311 308 307 305 302 300 298 296 295 294 293 290 286 278 267 261 259 247 252 264 263 255 234 209 204 211 210 205 202 201 201 202 203 205 207 210 213 215 217 219
316 314 313 311 310 308 307 304 303 302 299 297 296 294 290 287 286 280 273 260 250 239 240 252 263 265 242 234 220 212 213 210 206 204 203 203 205 206 207 210 213 215 217 219
314 313 312 310 308 307 305 305 304 301 297 295 292 289 286 283 278 271 266 253 234 234 244 249 250 248 237 242 234 221 214 212 210 208 205 205 207 206 208 211 213 214 216 220
312 311 310 310 309 307 306 306 304 302 298 294 291 290 285 277 275 275 273 270 255 235 245 242 235 232 237 239 234 226 217 214 211 206 205 207 208 208 209 210 213 214 216 219
311 308 307 306 306 304 305 304 302 300 299 295 290 287 284 279 274 270 266 264 260 245 244 245 238 227 231 231 229 226 221 213 207 210 209 206 209 209 210 212 215 215 217 221
310 310 307 308 310 310 310 308 305 303 300 296 293 289 284 279 274 269 265 262 258 250 245 239 235 231 231 229 226 223 219 215 208 205 206 206 207 207 208 213 216 213 215 219